Location: Brede
(50.9167°N, 0.6000°E)
Time: 20:07:24
(UTC+00:00)

Altair - Pass Details

Date: 01 August 2021
Orbit: 1501 x 1682 km, 47.2° (Epoch: 22 September)

Event Time Altitude Azimuth Distance (km) Brightness Sun altitude
Exits shadow 00:02:25 19° 139° (SE) 3,041 8.6 -21.1°
Maximum altitude 00:03:21 20° 131° (SE) 3,018 8.7 -21.1°
Drops below altitude 10° 00:09:23 10° 89° (E) 3,683 9.5 -21.1°
Sets 00:13:27 0° 74° (ENE) 4,652 10.3 -21.0°
